Theta_e
325 324 325 324 323 324 325 326 327 325 324 324 323 314 307 306 302 299 298 300 300 303 305 303 305 308 308 308 309 310 309 312 310 305 304 303 303 309 309 308 309 308 308 308 307 305 305 306 307 309 312 312 312 312 312 310 310 310 311 312 311 311 310 310 308 311 312 313 311 309 308 308 308 308
324 323 323 324 324 325 325 325 327 325 324 323 323 320 311 306 304 301 299 299 300 301 305 305 304 306 307 308 308 309 308 314 310 306 304 303 303 308 307 307 305 305 306 306 305 304 305 307 309 312 312 312 310 308 308 308 309 310 312 312 311 311 310 310 311 312 312 312 310 309 308 307 307 308
324 322 323 323 323 325 324 326 327 326 324 323 324 321 317 312 306 304 301 298 301 305 304 306 308 307 306 308 307 308 308 313 310 306 304 304 307 309 306 306 305 305 305 304 303 305 305 306 308 310 311 311 309 307 308 307 308 311 311 310 311 310 309 308 310 310 309 309 309 310 308 307 308 308
324 323 323 324 324 324 325 325 326 324 324 324 322 321 318 314 310 306 302 300 301 303 305 305 306 307 306 306 305 304 307 311 313 306 306 305 309 305 302 305 304 305 304 304 304 308 308 306 307 309 310 310 309 309 309 307 309 311 308 307 309 309 309 308 307 307 307 307 308 308 308 307 307 307
326 325 325 324 325 325 325 325 324 324 323 323 322 320 318 317 314 306 303 301 302 305 307 307 306 307 306 304 304 303 304 306 309 309 306 306 304 302 301 302 304 304 303 303 302 303 304 304 308 308 308 309 309 309 307 306 306 306 305 305 306 307 310 309 306 305 306 308 307 307 306 306 307 306
326 326 325 325 324 325 324 323 325 324 322 322 321 320 319 316 313 308 306 302 301 303 304 305 307 306 306 304 304 302 302 303 307 308 307 308 305 302 301 300 301 303 303 303 302 303 303 303 304 305 304 305 306 307 305 304 304 305 303 301 305 306 308 308 305 306 307 307 306 305 304 304 304 304
326 325 324 324 325 326 323 323 323 323 321 321 320 319 317 315 311 309 307 305 303 303 302 304 306 305 306 304 304 304 303 304 307 307 307 308 307 305 303 302 302 302 302 302 301 301 302 303 302 303 303 303 304 304 304 303 303 302 302 299 303 305 308 307 306 307 307 306 304 303 302 302 302 303
326 324 323 323 324 324 323 322 321 321 319 318 316 314 313 312 309 310 307 307 305 304 304 305 307 306 305 304 306 306 305 303 304 307 307 309 308 306 305 304 303 303 302 302 302 301 302 303 302 302 303 303 303 303 303 302 302 301 300 300 302 303 304 303 304 305 306 305 304 302 300 300 302 303
325 324 323 324 323 322 321 319 320 320 317 318 316 314 310 309 310 313 309 308 309 307 306 306 306 307 306 307 306 306 304 304 304 306 306 308 308 307 305 306 306 306 304 303 302 301 301 302 302 302 302 303 303 302 302 301 301 301 300 300 301 302 302 303 304 304 304 303 302 301 300 300 302 303
324 324 324 323 321 321 321 320 318 320 317 317 315 314 311 308 309 312 309 310 309 308 306 307 306 304 305 304 305 307 306 304 304 304 305 307 308 307 305 306 307 308 306 303 303 302 301 301 302 302 302 302 302 302 301 301 301 301 300 300 301 301 300 301 302 302 300 302 302 300 300 300 301 302
323 324 324 323 323 323 322 321 320 319 319 318 315 316 313 308 309 311 310 310 309 309 308 307 306 304 305 304 303 306 308 306 306 304 303 303 307 308 307 306 307 308 307 305 302 302 301 302 302 302 301 301 302 301 301 301 301 300 299 298 298 298 299 300 301 302 301 302 301 300 299 298 299 300
322 321 321 322 323 323 322 321 318 317 317 317 313 314 315 310 306 308 308 309 309 309 309 307 306 306 304 305 308 308 307 304 304 306 305 303 303 304 306 307 307 306 304 303 303 302 301 300 301 301 301 302 302 301 301 302 301 300 299 297 298 299 299 299 299 300 301 301 300 298 296 297 299 298
320 319 320 320 320 321 316 311 311 314 315 313 310 311 314 314 314 312 311 309 308 308 308 307 308 307 305 305 307 305 304 304 305 306 307 305 305 305 306 307 306 304 302 302 300 300 300 299 299 299 299 300 302 301 302 302 302 300 298 298 298 299 299 299 300 300 300 301 300 297 297 297 298 297
316 316 315 317 316 310 308 305 302 302 305 309 310 310 310 310 312 311 310 310 310 310 308 308 307 306 305 305 307 307 306 307 308 309 308 306 307 307 307 307 305 304 303 300 299 300 301 299 298 299 298 300 302 300 300 300 300 300 298 298 298 298 298 298 299 300 300 300 299 298 297 297 297 296
311 310 311 310 313 312 310 304 300 299 299 300 302 304 308 311 310 308 307 308 308 307 307 307 308 306 307 308 308 308 308 308 307 306 308 308 308 307 304 303 305 304 303 301 300 299 300 299 298 299 299 300 300 301 300 300 300 300 298 298 298 298 298 298 298 298 298 299 298 298 297 297 297 297
310 309 312 315 316 315 314 311 306 302 298 296 297 297 299 300 301 304 307 306 306 306 304 304 307 307 308 309 308 310 309 310 309 309 307 306 306 304 304 302 304 306 304 301 300 301 301 300 299 299 300 301 300 301 301 300 299 299 299 298 298 298 298 298 298 298 298 298 297 297 296 296 296 296
314 314 314 311 310 309 312 312 314 308 304 299 297 297 297 298 299 299 300 305 308 308 305 306 305 307 309 309 309 313 314 312 310 307 307 305 305 304 303 303 304 305 305 303 301 301 303 300 299 299 301 302 302 302 300 300 299 299 299 298 298 297 297 298 298 298 297 297 297 297 297 297 296 296
317 315 312 308 303 300 299 300 306 314 316 315 315 315 314 312 306 298 297 297 298 302 308 307 305 305 311 309 309 311 314 314 312 311 310 308 308 307 308 307 307 307 310 305 305 303 304 303 301 300 302 304 303 302 301 299 299 299 299 298 297 297 297 297 297 297 297 296 296 297 297 297 297 297
316 311 306 301 297 296 296 297 298 308 314 314 314 314 315 315 316 314 313 311 310 309 309 308 308 309 309 311 310 311 309 313 314 314 312 312 312 313 309 308 309 312 314 312 308 308 302 303 302 302 304 305 303 303 301 299 299 299 298 297 297 297 297 297 296 296 296 296 296 296 296 296 296 295
312 305 300 297 295 295 295 295 295 300 308 307 306 306 307 309 313 311 307 298 298 301 303 305 306 308 308 303 306 304 304 305 307 308 309 309 309 311 308 311 308 309 306 309 309 306 305 305 304 304 306 307 304 303 303 301 300 299 298 297 297 297 296 296 296 295 296 296 296 296 295 294 293 293
303 301 299 297 295 294 294 293 293 295 299 300 299 300 301 301 307 305 303 299 297 296 296 295 295 296 297 298 298 296 295 300 304 307 308 309 309 308 307 308 306 309 308 308 311 308 306 306 308 307 305 308 306 303 302 303 301 299 298 297 297 297 296 296 295 295 295 295 295 295 295 294 294 294
298 300 302 300 294 293 293 291 292 294 297 298 298 298 298 296 301 301 298 298 298 296 295 295 295 296 296 297 298 300 300 298 299 306 308 310 307 308 307 307 308 308 307 308 310 307 309 307 306 308 305 305 306 306 304 302 301 299 298 297 297 296 296 295 294 295 295 295 295 295 295 294 294 293
295 294 296 297 296 294 293 290 291 292 296 296 297 297 297 295 296 296 294 294 295 296 296 296 299 299 299 301 301 302 300 301 303 305 309 310 308 308 308 308 308 307 308 309 313 310 309 309 307 307 303 304 306 304 303 301 299 298 298 297 297 296 295 294 294 294 295 295 295 295 295 295 294 293
296 295 294 294 290 290 290 290 290 289 291 295 295 295 294 294 295 294 294 295 295 294 295 296 298 298 299 300 300 300 303 307 310 309 308 308 309 309 309 309 308 307 307 305 312 311 307 306 304 306 306 303 298 300 298 298 298 297 297 296 295 295 295 294 293 294 294 295 295 295 295 295 294 292
297 295 294 294 292 290 290 290 290 290 290 291 293 293 295 295 293 292 293 294 296 294 295 296 296 297 297 297 298 298 299 301 304 307 308 309 310 310 309 309 309 308 310 310 306 310 304 302 304 305 305 304 302 300 297 296 296 295 296 295 294 295 294 294 294 293 294 294 294 294 294 295 295 293
298 297 296 294 292 291 291 291 291 291 291 290 293 292 292 290 291 292 293 293 293 294 295 294 294 295 295 296 297 297 298 298 299 299 300 303 308 310 311 310 309 307 308 310 302 311 306 304 306 303 303 302 299 298 295 295 295 296 296 296 295 295 295 294 295 294 294 293 293 293 294 294 295 294
298 298 297 297 294 291 291 290 290 291 290 292 293 292 290 290 289 290 291 291 294 293 294 295 295 295 296 296 297 297 298 298 298 299 301 303 304 305 307 309 310 310 311 309 304 305 306 304 301 303 302 300 299 295 295 294 294 296 295 295 295 295 295 294 294 294 294 294 293 293 293 293 293 293
296 295 294 294 291 291 291 290 290 291 291 291 291 290 290 290 290 292 292 292 294 292 292 293 294 296 297 297 297 297 298 298 300 301 301 302 302 303 304 302 301 299 300 302 302 303 305 304 299 300 302 301 298 297 296 296 295 294 294 296 296 295 295 294 294 295 295 294 293 292 291 290 291 291
295 292 291 291 291 291 291 291 292 293 294 292 291 291 290 294 293 293 293 294 295 294 294 295 296 296 296 296 297 297 297 298 298 298 300 300 300 300 300 298 297 298 300 300 300 300 300 299 298 296 295 297 298 297 297 294 293 294 295 295 294 296 295 295 295 294 294 293 292 291 291 291 291 291
292 292 291 292 292 292 293 293 292 292 293 291 293 294 295 294 292 293 294 295 295 296 295 294 294 293 294 295 296 296 296 297 296 297 297 297 297 298 298 299 299 296 296 296 297 297 297 297 295 295 295 294 294 294 293 293 293 295 295 295 294 294 294 294 294 294 293 292 290 290 291 291 291 291
291 292 293 292 291 293 293 292 292 293 293 294 295 295 294 294 294 294 294 294 295 293 292 291 292 292 293 295 295 295 295 295 296 296 295 295 294 295 296 295 294 292 294 295 295 295 295 295 296 297 294 293 294 295 296 295 294 294 294 295 294 291 293 294 293 293 293 292 291 290 289 289 290 290
291 292 292 293 295 294 294 294 294 294 294 293 292 294 294 294 294 295 295 295 293 292 292 292 293 292 293 292 293 293 293 293 294 295 295 294 294 294 293 292 291 292 292 293 294 295 294 294 294 296 295 294 293 294 293 292 293 293 294 293 293 292 293 291 291 292 293 292 291 290 290 290 290 290
290 290 291 291 292 292 289 289 291 292 292 290 292 293 293 293 293 293 293 292 291 290 291 290 289 289 290 290 291 291 290 291 291 293 293 293 293 293 292 290 292 293 293 291 292 294 295 295 295 296 297 296 294 294 293 289 290 291 293 294 293 292 293 293 292 293 293 292 290 290 290 290 290 290
286 284 287 288 289 289 289 289 288 287 288 288 289 289 289 290 291 290 291 291 289 288 288 288 287 287 286 287 288 288 288 288 289 290 290 290 291 290 290 289 291 294 292 291 291 292 293 293 293 294 294 293 295 294 292 289 289 292 293 293 293 292 292 293 293 292 291 290 288 287 288 288 291 291
285 286 288 288 288 288 288 288 288 288 287 287 287 287 287 288 288 288 289 289 286 286 286 286 285 284 285 284 285 285 285 285 287 288 287 288 289 289 289 288 289 291 292 291 291 292 293 292 292 291 290 291 290 291 294 292 290 291 292 292 292 292 291 292 292 291 292 290 289 287 287 287 289 291
288 288 289 288 288 288 288 287 287 288 287 287 287 286 288 288 287 287 287 287 287 285 285 284 284 284 284 284 284 284 284 284 285 285 285 286 286 287 288 288 287 288 290 292 292 293 292 291 289 287 287 286 285 284 287 293 293 293 291 289 292 291 291 292 292 292 291 290 290 288 287 286 288 290
288 288 288 288 288 288 287 287 287 288 289 289 288 289 288 287 286 288 287 285 286 284 285 284 284 283 283 283 283 283 284 284 284 284 285 286 286 286 285 287 287 288 289 291 291 292 292 290 290 288 286 285 284 285 285 287 290 292 293 290 289 291 291 290 290 289 290 291 290 290 287 286 287 290
288 287 288 288 289 289 288 288 287 288 289 288 288 288 289 289 288 287 287 286 285 284 284 283 283 283 283 283 283 283 284 284 284 284 284 284 284 285 286 287 288 289 289 289 291 291 291 291 290 290 288 286 286 285 286 287 286 288 290 292 289 288 289 289 288 288 288 289 290 290 290 287 288 290
289 288 288 288 288 288 288 289 288 289 290 289 288 288 288 288 286 285 285 284 284 284 283 283 283 283 284 284 284 284 284 285 285 285 285 285 285 284 285 286 287 287 288 288 290 290 290 289 289 288 288 286 285 285 285 285 285 287 289 292 291 288 287 288 287 286 287 286 287 287 287 288 289 288
288 288 288 288 288 289 289 290 289 290 288 288 288 289 288 286 285 283 283 283 283 284 284 284 284 284 284 284 284 283 284 284 285 285 285 285 286 285 285 286 286 287 287 287 287 287 288 288 289 289 289 289 288 287 286 287 287 287 287 289 291 290 287 287 287 287 287 289 288 286 286 286 286 287
288 288 288 288 289 290 289 290 290 289 289 289 289 289 288 286 284 283 283 283 283 283 283 283 283 282 282 283 283 283 284 285 285 285 285 285 286 286 286 286 286 286 286 286 286 287 287 289 289 286 289 288 287 288 287 287 286 286 287 287 289 290 290 292 291 288 287 288 287 286 285 285 284 285
288 288 289 289 289 289 289 289 289 289 289 288 288 286 286 285 284 286 284 283 281 281 281 281 282 282 282 282 282 283 283 284 285 285 285 285 285 286 286 286 286 286 285 285 285 286 288 290 288 288 287 286 287 286 285 285 285 286 286 286 286 288 289 289 290 290 290 287 285 284 284 284 285 284
289 289 288 288 289 289 289 289 289 289 287 288 287 286 285 286 284 282 280 281 280 280 279 280 279 280 281 281 281 282 283 284 284 284 284 285 285 285 285 285 285 285 285 285 286 286 287 288 288 287 288 287 286 286 286 285 286 286 286 286 287 287 287 288 289 288 288 289 288 286 285 284 283 282
288 288 288 288 288 288 288 288 288 288 288 287 287 287 287 286 286 284 281 281 281 280 279 279 279 279 280 281 281 280 282 282 283 283 284 284 284 285 285 285 285 285 285 285 286 286 287 287 287 286 287 286 286 286 286 286 286 286 286 286 285 286 286 287 287 287 287 287 288 288 288 287 287 287
287 287 287 287 287 287 287 288 288 288 287 286 286 286 287 286 286 284 281 280 279 280 280 280 279 279 279 280 280 282 282 284 283 282 282 282 283 284 285 285 285 285 285 285 285 285 286 286 287 286 286 286 286 286 287 286 286 285 286 286 286 286 286 287 287 287 286 286 287 287 286 286 286 285
Wind_Speed
6 5 6 7 6 6 4 4 5 5 4 5 5 6 9 8 8 5 5 4 4 4 6 4 2 2 6 7 6 7 5 7 7 5 5 5 4 7 9 10 10 9 10 9 9 9 9 9 9 9 9 8 8 7 6 7 6 6 6 5 6 5 5 5 4 4 4 5 6 5 5 4 4 4
4 4 3 4 5 5 5 6 5 5 6 6 5 5 5 5 10 6 7 4 3 6 3 2 5 4 5 6 6 6 6 9 8 6 5 5 4 8 9 9 9 9 9 9 9 9 10 9 9 9 8 8 7 7 7 6 6 5 6 6 6 6 5 4 5 5 4 4 4 4 4 3 4 4
3 3 4 3 3 4 5 5 5 5 5 6 5 4 5 3 6 7 6 5 3 6 6 2 7 9 7 7 7 5 6 8 8 6 5 5 7 8 7 9 8 9 9 9 9 9 9 9 9 8 8 7 6 6 6 6 6 6 6 6 6 6 6 4 3 3 2 2 2 2 3 4 4 5
4 4 5 5 4 4 4 4 5 5 5 4 4 4 5 4 4 6 6 7 6 5 7 7 6 10 10 8 8 6 6 7 9 5 5 5 8 5 4 7 9 9 9 9 9 9 10 10 10 9 8 8 8 7 7 7 7 7 7 7 6 5 6 5 4 2 2 2 1 3 3 3 4 4
5 6 5 5 4 5 6 5 4 5 4 4 4 1 1 2 4 6 6 7 6 1 3 8 9 8 10 7 8 9 7 7 5 5 5 5 6 5 5 6 9 10 10 10 10 11 11 11 11 11 10 10 9 9 9 8 8 8 8 7 6 6 6 5 3 2 2 2 3 4 4 4 4 4
6 6 5 4 5 6 6 5 5 5 5 4 4 2 2 5 5 7 5 6 6 5 3 4 5 8 9 8 8 10 9 7 6 6 6 6 7 7 6 6 7 13 12 12 12 12 12 12 12 12 12 11 11 11 10 10 10 9 9 8 8 7 6 5 4 3 3 5 5 4 3 3 3 4
5 6 5 5 5 5 5 5 5 4 4 4 4 5 3 4 5 7 7 6 4 9 6 6 8 7 7 7 10 9 10 11 11 9 8 9 8 7 8 8 7 13 16 16 15 15 15 15 14 13 13 13 13 12 12 11 10 10 9 10 9 8 7 7 6 5 6 6 5 4 3 2 3 3
6 6 5 5 5 5 6 5 5 3 3 4 3 3 3 5 5 5 5 7 6 4 9 6 10 8 9 5 8 9 8 10 10 10 9 7 9 9 9 10 9 12 19 19 20 19 18 17 16 15 14 13 13 12 12 10 9 10 11 10 10 9 9 8 8 6 6 5 4 3 2 2 2 3
6 6 5 5 5 4 5 4 4 2 2 4 4 4 3 5 5 6 6 6 6 8 9 7 5 7 7 7 8 9 9 7 7 7 9 10 10 10 10 9 10 14 20 21 20 18 18 17 17 15 15 14 14 13 11 10 11 11 11 11 11 11 10 9 9 8 7 5 4 4 2 1 2 3
6 7 6 5 5 5 5 4 2 0 2 3 3 3 4 5 5 6 5 6 6 7 7 8 6 5 7 3 4 8 10 10 8 7 8 6 8 9 8 10 9 8 8 8 10 12 13 15 16 16 15 15 14 13 12 12 12 12 12 12 12 12 11 11 10 9 8 7 6 4 3 1 1 1
5 7 7 7 6 6 5 4 3 2 2 1 1 1 1 5 5 8 7 6 5 5 3 3 4 7 5 5 6 7 10 11 11 11 7 7 8 8 10 10 9 8 9 11 14 12 13 13 12 14 15 14 14 13 13 12 13 12 13 13 13 13 13 12 11 10 9 8 7 6 4 2 2 2
5 4 5 5 5 5 3 4 3 3 3 4 3 3 3 2 4 6 8 8 6 5 5 5 4 4 7 4 3 3 6 4 4 6 6 9 8 9 9 11 10 7 5 7 6 6 6 8 11 11 12 13 14 14 12 14 13 14 13 14 14 14 14 13 13 12 10 10 8 7 6 5 4 3
6 4 4 4 3 3 7 7 6 6 6 6 5 4 5 4 6 4 4 4 6 4 5 5 4 7 6 7 6 4 8 10 11 9 7 8 9 8 6 6 5 6 7 5 3 6 8 8 8 8 7 9 11 11 12 10 14 15 14 15 15 15 15 14 14 13 12 11 10 9 8 7 5 5
6 6 4 4 9 10 11 10 11 13 12 9 6 5 6 4 6 6 6 6 6 6 6 2 1 3 4 6 6 7 6 8 6 7 9 10 10 8 8 4 5 8 6 6 7 8 6 7 6 5 9 9 8 8 7 10 11 14 16 16 16 16 15 15 15 14 13 12 11 10 9 8 7 6
6 5 5 5 6 7 7 8 11 12 13 12 10 9 9 6 6 6 6 4 4 3 3 1 4 3 1 1 2 2 3 1 4 6 7 8 6 6 5 5 2 2 8 8 7 7 6 7 8 9 10 9 7 8 10 15 15 16 17 17 17 17 16 16 15 14 13 12 11 11 10 9 8 7
6 6 7 5 5 6 5 4 4 6 7 9 10 10 9 9 7 6 5 4 3 2 2 2 1 1 0 1 2 1 2 3 4 4 3 1 4 4 4 3 4 5 9 7 6 8 5 8 9 8 10 9 9 12 14 15 16 17 18 18 18 18 17 16 16 15 14 13 12 11 10 9 9 8
7 7 8 7 6 5 10 8 5 4 4 5 6 7 7 5 6 5 5 4 3 5 2 1 1 1 0 0 1 0 1 0 2 3 5 4 4 2 3 5 4 3 7 5 6 8 5 8 8 9 11 9 8 10 12 16 17 18 18 18 19 19 18 17 17 16 15 14 13 12 10 9 9 9
8 7 8 7 7 6 8 8 7 4 5 5 5 6 5 5 5 7 9 9 10 7 2 0 1 2 0 2 2 2 1 0 1 1 3 1 3 4 4 5 5 4 7 9 5 4 5 7 7 9 11 7 8 9 12 17 18 19 19 19 20 19 18 18 17 16 15 14 13 12 11 10 9 9
9 9 9 9 8 8 9 7 7 5 5 5 6 6 6 7 7 8 9 8 6 6 5 4 2 3 2 1 1 0 0 1 1 2 2 3 4 5 3 3 3 5 4 6 4 7 4 4 8 10 10 7 8 9 11 17 19 20 19 20 20 19 19 18 17 16 15 14 13 13 11 11 10 9
9 9 9 9 9 9 9 11 15 11 7 8 8 7 6 7 6 7 5 8 8 7 6 5 4 4 4 4 5 5 3 2 2 3 3 3 3 5 6 7 4 5 4 3 6 4 5 6 9 9 9 7 8 8 9 15 20 20 21 21 20 19 19 19 17 16 15 14 13 13 12 11 9 7
10 9 8 8 8 9 9 10 13 12 11 8 8 7 7 6 5 6 7 8 9 11 11 10 11 12 12 10 9 9 8 6 3 5 7 7 6 7 8 8 6 8 5 3 6 5 6 4 7 6 4 8 8 7 9 9 15 21 20 20 21 20 19 18 18 16 15 14 13 12 12 9 7 5
10 10 14 10 9 9 7 10 13 13 10 8 6 6 5 6 6 6 7 8 8 10 8 6 8 7 9 11 11 10 10 7 2 1 6 6 5 7 7 9 8 7 3 5 4 3 7 3 4 8 3 1 3 6 8 8 8 12 13 16 18 18 18 18 17 15 14 14 14 13 11 9 6 2
7 7 9 12 10 8 6 10 10 10 8 5 4 3 3 3 3 3 5 6 8 10 11 11 12 11 10 8 6 7 12 12 6 5 7 6 6 8 8 8 7 9 6 6 6 6 8 7 5 6 1 6 5 1 1 4 5 5 7 9 11 17 17 16 15 16 16 14 14 12 10 9 6 3
6 6 6 6 9 10 10 9 9 8 8 5 3 3 3 3 3 3 4 3 3 5 5 6 7 7 7 8 7 6 6 7 5 4 5 5 6 7 9 9 8 9 6 2 7 8 5 3 3 2 4 6 4 4 6 6 4 5 3 1 5 11 14 13 11 14 14 13 12 11 11 10 8 4
6 6 5 4 6 8 7 7 6 6 5 4 3 2 2 2 1 2 3 3 4 3 4 4 5 7 7 7 6 6 6 6 6 5 4 4 5 6 8 9 9 9 9 6 6 5 4 1 4 3 5 4 4 4 1 1 1 3 3 4 4 2 4 6 4 5 5 7 8 9 10 10 10 6
5 4 3 3 4 6 5 5 4 3 2 2 1 1 1 4 5 2 2 3 3 3 3 5 6 6 6 7 7 7 6 6 5 5 6 6 6 6 7 9 10 10 11 8 12 9 6 4 6 4 3 4 3 4 2 1 2 4 6 5 7 8 7 5 2 1 2 5 5 6 9 9 8 9
4 3 3 1 3 6 6 6 6 5 3 2 1 1 2 2 2 2 1 3 4 5 5 5 6 6 6 7 7 8 7 7 7 6 5 5 6 7 7 8 9 11 10 5 3 4 5 5 3 7 7 6 7 3 4 3 1 3 5 7 7 7 9 8 6 7 8 7 8 10 10 8 8 9
4 4 3 3 5 6 7 6 6 6 7 4 5 2 2 3 3 1 1 2 3 3 3 4 5 6 6 5 6 6 6 6 6 6 5 6 6 8 8 7 6 5 6 6 4 5 6 6 3 3 5 7 5 4 4 3 3 6 6 4 5 6 7 8 8 8 6 6 5 5 5 4 3 4
3 3 7 8 8 7 6 5 4 4 4 6 7 8 9 4 1 2 3 4 4 6 6 6 6 5 6 5 4 4 4 4 4 4 5 4 4 5 5 4 3 4 3 4 5 4 1 4 4 1 1 1 3 2 2 3 3 4 6 8 5 7 7 8 9 9 7 6 6 6 7 7 6 5
6 6 7 8 8 8 6 4 5 5 6 7 10 13 10 5 5 4 5 5 6 6 6 6 7 7 6 6 6 4 4 6 7 6 7 7 8 8 9 11 9 6 6 6 6 4 3 2 3 4 4 3 1 2 3 5 2 3 6 7 5 2 2 5 7 6 6 7 6 6 6 7 7 7
5 6 6 6 6 6 8 9 8 9 8 9 8 7 7 6 7 7 7 6 7 6 6 6 6 5 5 5 7 8 8 8 8 7 7 7 7 6 6 5 7 6 6 5 4 4 3 2 1 3 4 2 4 5 6 6 7 6 7 6 7 7 7 6 4 6 5 6 6 5 4 4 2 3
4 4 5 7 8 8 8 8 7 7 7 7 7 6 6 6 6 7 8 8 7 6 5 5 6 6 7 8 7 7 7 6 7 7 7 7 8 6 5 6 7 5 5 5 4 4 4 2 2 2 2 4 4 1 1 2 6 6 5 4 6 1 5 8 7 5 7 7 7 6 4 5 6 5
4 5 7 7 8 8 7 7 7 7 8 7 7 7 7 7 7 7 7 7 7 6 7 8 7 7 7 8 8 8 8 7 7 7 8 7 8 8 5 4 6 5 7 6 2 3 2 3 2 3 4 3 2 4 4 2 2 3 5 2 5 5 5 7 9 8 7 7 6 6 3 1 5 6
4 4 6 7 8 7 7 7 7 6 6 6 7 6 6 7 7 7 7 7 6 7 7 7 7 7 6 7 7 7 7 7 6 6 6 7 7 6 7 7 6 5 4 3 4 3 2 3 2 3 4 4 5 5 3 2 2 1 0 4 4 6 4 6 6 6 6 6 7 5 2 2 2 5
6 6 9 7 7 6 7 6 6 6 6 7 7 7 7 7 8 7 7 7 6 7 6 7 6 5 5 6 6 7 7 8 8 7 7 6 7 6 7 6 6 6 7 5 4 3 2 2 0 2 2 3 3 3 6 3 2 1 3 5 6 8 6 5 6 6 6 4 5 5 2 3 4 3
7 8 7 7 7 7 8 7 6 6 6 6 6 6 7 7 6 6 6 4 5 6 6 6 6 6 6 6 7 7 7 7 7 7 8 7 7 6 6 6 6 6 6 6 6 3 1 1 1 3 3 1 1 2 1 7 5 1 6 4 5 6 5 5 4 4 5 5 4 4 2 2 4 4
7 7 7 6 6 6 6 5 6 6 7 7 6 6 5 6 5 6 4 3 6 5 5 5 6 5 6 6 6 6 6 7 7 8 8 8 7 7 6 6 6 6 6 5 2 0 1 2 3 2 3 2 4 5 1 4 6 9 3 8 4 5 6 5 5 4 3 4 2 2 3 5 4 4
7 6 7 6 6 6 6 6 5 6 6 6 6 6 5 5 5 5 4 6 6 6 6 6 5 5 5 5 6 7 7 7 7 8 8 8 8 8 7 6 5 5 4 1 3 4 3 3 2 1 1 2 2 1 1 1 3 7 9 4 7 4 5 6 5 4 1 1 2 1 1 4 5 7
7 7 7 7 7 6 6 6 5 6 6 5 5 5 6 6 5 6 6 6 6 6 5 5 6 6 7 7 7 6 7 7 8 8 8 8 8 7 8 6 6 6 6 6 6 6 5 5 4 4 2 1 2 2 3 4 2 0 7 8 6 5 3 5 5 3 3 1 3 4 4 1 6 11
6 7 7 7 6 7 6 5 5 5 5 6 6 5 5 5 5 6 5 5 5 5 5 6 6 6 7 6 7 6 6 6 6 6 7 6 7 7 7 6 5 5 6 7 7 6 7 6 5 5 4 2 2 2 3 4 3 1 4 9 10 5 5 4 4 5 3 1 2 4 3 3 3 2
6 6 6 6 6 6 5 5 4 5 5 5 5 5 5 5 5 4 4 4 5 5 5 5 5 5 5 6 5 5 5 6 6 6 6 6 6 6 8 7 7 6 5 5 5 5 5 5 6 8 6 3 2 1 2 3 3 1 4 3 6 9 6 3 5 4 3 2 4 5 5 4 5 3
5 6 6 6 5 5 5 4 5 5 5 4 4 4 4 5 4 5 5 5 4 4 4 4 5 4 4 5 5 5 4 5 5 6 6 6 7 7 8 7 6 6 6 5 5 4 4 4 4 4 5 2 1 2 1 2 3 0 1 1 2 5 7 6 6 5 5 4 4 2 2 3 3 4
6 6 6 5 5 4 5 5 4 4 4 4 3 4 5 5 4 4 3 3 2 2 2 3 3 3 4 3 3 3 4 5 5 5 5 5 5 6 6 6 5 5 5 5 4 4 5 5 5 6 5 5 4 1 1 3 2 2 0 1 1 1 1 3 1 4 2 0 2 3 2 3 4 1
5 5 4 4 4 3 3 3 4 4 4 3 3 4 4 3 1 0 0 0 1 1 2 2 3 3 4 3 3 3 3 3 3 4 5 4 4 4 5 5 4 4 4 5 5 5 5 5 4 4 4 3 3 3 3 2 4 3 3 1 1 2 4 2 1 1 1 1 3 5 6 7 4 5
4 4 4 4 3 3 3 4 5 5 4 5 4 4 2 2 1 1 1 1 1 2 2 2 2 3 3 3 3 5 5 4 3 3 3 3 4 4 4 4 5 5 5 4 5 6 6 6 5 3 1 3 2 2 1 1 2 3 2 1 3 3 3 0 1 1 1 0 3 3 4 5 6 5
Wind_Direction
155 165 165 168 167 175 173 180 186 193 175 165 153 156 160 158 148 164 182 209 139 150 139 134 173 171 140 140 148 143 154 156 147 142 147 150 157 160 153 150 152 149 151 153 155 155 158 157 160 165 164 163 162 157 152 148 146 141 134 131 127 123 118 121 119 101 91 97 105 104 91 72 61 49
143 151 157 159 170 168 168 187 195 193 191 171 176 162 187 168 158 169 162 203 178 148 198 143 142 169 154 146 150 153 162 167 153 154 158 161 167 171 161 161 160 162 163 165 167 171 173 177 178 179 178 173 168 164 161 159 160 159 157 146 145 140 137 140 152 152 148 135 119 102 80 55 34 33
156 159 174 182 186 176 179 186 188 185 183 186 180 157 144 196 158 154 147 141 208 157 160 178 152 151 171 160 153 156 163 174 165 161 163 171 174 169 176 173 177 179 179 178 182 183 189 193 195 192 191 185 181 182 179 179 180 182 164 157 160 159 154 152 150 136 115 89 59 55 51 37 28 25
175 181 189 188 197 184 176 181 181 190 192 188 193 171 147 174 165 160 152 152 172 191 155 159 156 154 156 161 154 158 169 183 179 164 176 173 167 174 188 198 198 200 197 197 196 198 198 200 202 204 201 202 200 201 195 192 197 187 171 174 174 169 169 161 160 153 119 92 60 53 53 41 33 24
180 190 192 189 186 170 173 179 182 183 197 193 212 147 118 189 143 172 142 143 159 93 165 149 159 165 149 161 165 159 169 176 193 187 181 168 174 188 194 204 214 213 215 212 210 212 208 207 208 205 206 203 205 204 201 200 200 190 182 183 183 189 186 174 153 149 148 128 98 87 63 41 24 8
191 182 182 183 173 169 161 175 176 184 180 193 205 228 184 235 161 188 133 153 153 147 151 130 139 158 169 153 175 162 170 186 186 189 187 184 190 194 195 199 212 215 217 217 217 218 217 216 216 212 209 206 204 204 202 201 198 191 188 190 192 190 189 169 158 169 149 125 114 99 72 39 11 356
187 166 171 177 169 159 161 180 194 170 181 190 193 218 210 221 180 189 153 140 142 146 174 165 154 170 183 171 178 181 179 183 185 189 194 191 196 202 197 204 212 211 212 214 215 215 217 216 216 216 213 211 208 207 205 202 195 192 191 190 194 186 184 172 170 170 157 141 123 100 72 33 353 330
173 170 155 175 168 157 163 187 198 199 180 200 199 219 213 211 183 165 161 156 140 152 143 191 170 181 172 209 175 179 182 178 187 196 196 193 199 202 203 207 211 210 210 214 214 213 213 213 214 216 216 215 214 212 209 202 195 194 194 189 188 182 174 167 171 163 155 144 134 116 84 16 337 340
165 161 155 159 155 144 157 188 200 227 204 217 203 237 227 214 167 161 165 168 150 147 157 170 199 175 192 186 176 175 174 190 199 201 199 198 203 206 207 208 218 216 210 215 218 216 215 214 213 214 215 217 217 216 211 203 200 198 193 188 183 179 175 170 168 163 153 147 158 162 108 336 334 323
158 153 149 148 144 151 166 175 143 118 214 216 218 254 249 213 148 144 156 150 162 165 162 153 172 196 185 185 183 182 181 176 189 207 217 212 212 207 212 218 218 216 211 219 226 228 229 226 218 215 217 219 220 218 211 207 205 201 194 187 182 178 175 172 170 166 163 161 159 156 176 212 290 332
148 154 154 151 161 169 173 131 132 131 63 172 147 23 219 214 151 139 147 149 138 126 140 153 161 183 217 182 192 191 186 186 184 193 199 222 218 212 211 221 223 218 216 215 212 211 210 214 216 222 221 221 222 219 215 212 208 202 196 188 183 179 176 174 173 170 170 172 168 170 169 201 242 299
152 160 149 155 172 159 129 122 155 129 109 88 88 13 24 144 144 137 144 148 147 147 170 181 158 190 200 252 246 150 167 171 231 227 191 210 216 220 220 221 216 219 201 212 209 211 206 224 224 229 230 229 227 222 219 217 210 205 198 191 186 182 179 178 176 177 176 176 173 178 184 201 212 231
143 152 148 147 151 105 94 123 143 120 124 120 90 49 65 78 101 83 69 90 116 139 155 179 162 175 196 210 213 177 167 190 203 206 191 215 222 221 235 253 232 199 202 213 177 203 200 205 213 210 220 231 226 230 222 222 216 208 199 194 190 185 183 180 181 180 181 181 179 185 191 197 203 215
137 148 138 134 129 117 123 128 113 106 102 103 113 117 98 90 88 95 89 81 92 96 82 68 155 158 204 201 197 199 208 198 193 183 195 212 228 219 219 241 226 189 165 163 202 223 192 199 215 200 227 231 205 223 212 219 211 208 202 197 192 188 185 184 183 184 183 183 184 188 194 200 205 212
128 117 107 94 95 102 108 108 113 117 114 111 107 98 97 110 119 106 92 107 120 119 117 124 88 113 93 302 255 244 267 294 192 207 185 193 179 183 190 231 287 211 168 183 201 231 190 173 206 217 224 224 206 215 221 219 211 207 201 199 195 191 188 186 185 183 184 185 187 191 197 201 208 213
128 107 85 68 57 50 54 82 73 66 74 108 119 117 108 94 82 104 135 133 84 120 121 92 122 119 145 296 356 21 45 355 359 349 348 242 208 218 213 223 221 225 175 181 186 235 193 185 202 218 227 219 212 217 220 213 210 210 203 200 196 193 190 187 185 184 184 185 188 193 200 205 210 219
101 97 88 75 49 31 33 37 38 79 72 55 65 93 89 82 93 92 84 102 147 163 124 131 229 191 187 353 273 191 9 151 25 344 354 335 334 298 271 252 261 277 182 159 199 231 216 178 204 218 232 219 209 224 220 214 210 211 206 200 198 194 191 188 186 185 185 185 189 195 198 202 211 221
97 92 93 82 59 34 36 25 16 30 60 54 50 43 39 52 43 40 35 28 22 25 70 137 260 279 46 255 232 267 285 26 284 1 295 261 281 280 247 230 225 257 163 186 184 239 242 197 202 223 240 210 206 219 214 209 212 211 207 202 200 195 189 187 186 185 185 186 191 198 199 202 213 224
82 82 81 81 72 49 37 21 8 18 36 55 51 48 41 38 42 58 48 36 31 29 24 33 330 306 304 280 273 161 63 117 193 190 206 235 240 253 261 305 273 277 224 196 186 246 238 193 199 226 231 210 209 211 217 209 211 211 206 204 201 195 190 187 185 184 184 187 193 200 198 202 212 225
72 73 74 76 68 59 52 22 33 38 47 49 40 35 24 31 41 48 47 38 45 41 30 19 3 339 313 288 303 309 312 305 299 329 314 322 313 315 300 269 279 257 278 189 194 238 254 195 192 226 229 216 213 213 215 218 212 210 206 201 197 195 191 185 182 183 185 190 197 201 201 203 210 228
67 68 70 75 74 61 51 34 45 44 61 57 48 38 25 16 28 14 356 354 16 11 5 1 0 355 352 345 328 312 300 290 330 349 338 302 295 297 288 276 267 262 247 244 192 216 256 217 202 259 259 212 216 205 219 223 216 213 205 198 195 193 188 183 180 181 185 191 199 203 205 201 207 230
72 67 71 73 69 64 51 40 45 41 53 59 55 49 36 24 7 355 354 350 344 351 351 0 352 342 339 337 329 320 307 291 206 259 279 275 292 275 262 270 264 271 269 256 192 204 246 234 209 223 263 329 259 218 216 217 226 216 210 201 195 189 182 178 178 181 188 196 199 204 200 196 197 199
77 67 55 63 72 79 72 59 50 41 50 71 61 56 70 38 17 356 352 2 352 349 349 344 349 344 344 340 329 313 305 297 265 213 243 264 253 262 266 264 281 283 256 234 171 217 259 253 234 206 315 276 267 304 308 236 215 182 196 193 191 184 175 173 179 182 192 195 200 198 194 192 172 181
74 69 64 56 61 64 58 56 55 53 53 63 45 51 66 48 9 336 346 354 359 329 327 316 324 315 316 322 326 323 321 314 301 265 244 250 244 256 266 264 254 258 263 265 183 211 251 223 285 2 316 301 302 338 18 6 342 339 351 149 163 169 162 170 192 199 197 195 198 192 192 191 169 158
83 70 58 56 58 68 71 66 55 59 50 47 33 30 40 46 242 334 349 326 350 321 314 317 317 317 319 318 315 310 309 305 308 308 288 260 249 256 271 276 276 274 268 258 204 233 254 179 232 203 216 184 218 258 272 256 64 90 104 100 87 88 147 168 173 207 224 208 207 196 203 195 181 173
81 89 93 61 32 35 46 55 76 76 46 345 72 306 9 22 6 351 314 309 315 318 323 323 323 321 324 319 317 314 311 308 309 315 312 313 302 276 262 260 261 269 270 246 187 206 226 255 246 233 232 238 275 214 221 269 155 153 141 146 154 158 161 151 156 228 195 203 210 212 217 200 181 191
68 87 99 117 11 357 7 13 12 21 41 123 166 248 7 307 287 295 324 315 326 329 332 339 325 316 318 325 321 318 324 322 323 328 332 347 357 340 314 280 264 265 282 318 177 209 198 246 199 205 221 206 209 185 166 157 203 149 153 167 159 160 169 159 176 207 205 191 207 214 218 195 182 202
53 22 14 349 332 346 348 0 4 2 5 353 340 2 154 177 217 221 266 268 262 279 305 321 320 323 321 327 327 329 324 326 326 323 338 356 3 1 353 353 351 344 343 331 300 227 210 231 221 214 178 178 165 192 234 249 149 175 176 161 165 185 177 173 180 206 211 199 187 183 187 197 199 153
44 356 340 340 342 341 340 356 30 43 32 19 350 328 319 329 19 344 330 332 344 352 347 340 339 341 335 325 320 317 318 312 327 339 347 350 1 354 347 326 326 337 350 337 349 351 208 193 197 182 60 171 182 236 195 198 169 185 160 150 179 200 183 187 189 199 198 178 178 171 185 180 204 163
26 3 339 342 350 353 3 17 21 23 16 17 34 34 37 36 22 2 352 348 11 10 4 5 1 345 341 347 333 334 342 7 358 350 351 354 354 360 353 351 339 334 352 354 356 3 23 67 125 109 79 42 108 146 133 120 71 141 167 183 179 101 194 186 199 185 167 170 157 165 197 183 194 164
5 352 360 341 339 10 44 68 71 60 47 45 38 42 45 46 40 36 36 38 40 30 23 15 1 344 334 331 2 5 1 354 349 353 347 347 336 350 346 347 332 333 330 348 359 359 19 57 113 136 126 113 84 137 160 138 148 175 187 179 150 173 191 168 150 152 155 132 138 153 159 203 205 150
344 346 352 27 50 58 55 48 47 43 45 47 41 35 36 35 33 32 33 43 46 34 23 14 358 2 4 6 354 353 358 352 344 345 345 338 328 334 343 347 326 314 314 327 330 344 8 36 67 44 102 147 144 200 52 130 170 165 198 218 185 142 121 135 123 118 124 124 113 129 175 176 133 147
354 19 42 48 52 58 58 49 43 37 37 31 30 30 25 25 28 31 39 40 31 15 19 16 9 3 2 0 357 355 352 350 342 338 338 326 325 317 327 311 292 313 307 286 306 326 359 23 22 75 86 79 105 144 144 119 207 196 199 157 129 117 118 121 127 134 130 113 130 137 143 101 132 148
37 22 51 54 61 57 57 53 46 42 45 42 32 21 23 29 34 33 34 38 28 23 27 18 20 9 2 360 353 345 337 327 328 321 320 313 310 306 305 305 301 302 312 289 303 303 328 346 2 29 33 45 57 67 110 127 126 63 255 162 124 109 110 119 116 128 126 137 135 105 109 2 93 148
47 42 62 56 57 59 63 58 50 48 47 38 39 25 24 30 35 34 36 26 24 27 28 23 16 5 4 351 340 341 334 331 326 325 316 308 311 306 298 299 299 305 303 276 243 239 274 271 342 46 7 10 40 29 41 49 118 14 72 74 118 124 127 127 129 123 123 122 108 119 101 40 73 126
55 65 71 63 55 55 54 45 47 48 44 38 39 37 40 33 29 40 37 5 38 36 34 19 11 5 1 355 345 343 339 334 326 321 320 313 307 302 300 293 291 292 290 272 240 234 239 263 129 151 159 230 142 203 345 360 15 152 107 89 82 105 111 120 113 114 107 97 112 116 136 139 156 159
68 65 69 69 64 62 67 57 57 48 45 42 40 48 52 44 28 41 27 32 43 35 29 26 14 3 356 350 343 339 340 349 348 344 341 332 318 307 305 300 298 294 294 279 205 279 52 33 38 89 120 146 185 205 263 305 1 16 86 113 97 110 125 109 99 88 96 115 121 143 147 146 186 193
68 63 61 57 54 51 48 47 48 50 47 47 47 46 44 44 42 34 22 39 28 26 22 20 4 2 357 358 3 360 359 360 358 356 349 350 352 341 329 309 301 310 305 1 49 40 36 55 38 21 122 160 208 211 164 347 353 358 349 121 119 137 111 105 92 115 73 30 133 300 113 148 189 205
62 63 59 53 43 39 37 26 39 52 56 51 44 48 47 44 41 30 30 31 27 24 13 10 9 5 8 3 5 7 3 3 2 356 352 352 352 345 342 348 1 3 27 30 24 32 32 38 27 31 82 130 171 227 165 129 89 248 5 32 124 112 91 110 114 89 79 28 48 46 38 66 62 63
56 62 64 58 42 37 25 33 44 53 52 48 45 43 59 58 48 41 34 31 27 17 19 13 5 4 6 4 2 356 2 6 1 353 350 345 349 350 350 345 19 20 41 37 35 20 22 6 358 13 14 8 314 301 159 110 118 41 30 21 24 99 150 126 111 113 74 26 125 96 91 48 62 27
54 59 58 61 48 36 25 31 46 48 41 40 45 47 59 66 61 44 47 32 31 23 17 4 4 5 358 356 355 0 357 358 359 359 353 348 349 358 359 3 24 22 49 44 33 30 10 336 318 326 335 317 300 348 37 54 53 12 41 351 1 24 34 86 133 126 148 150 125 138 150 170 147 139
58 67 61 57 50 37 28 22 25 34 33 32 46 71 68 61 57 48 33 22 19 17 17 0 355 355 355 349 351 359 4 358 355 356 357 353 352 354 7 13 12 8 26 24 9 343 313 326 345 3 344 355 30 63 68 119 166 273 352 3 344 22 25 12 62 87 132 148 133 133 120 48 76 112
45 57 64 58 45 34 24 24 17 9 12 28 47 66 73 61 42 30 16 16 3 5 353 346 342 353 344 346 345 357 4 3 359 355 355 358 358 356 360 1 359 358 4 348 333 342 349 348 4 10 4 26 359 88 229 210 190 181 281 82 157 326 7 313 57 104 86 337 202 171 160 156 128 165
47 69 67 67 52 29 20 12 9 12 17 14 52 74 79 89 66 289 165 110 6 320 298 314 328 347 342 332 335 348 10 352 343 353 354 347 358 350 347 346 349 359 0 357 348 349 346 346 341 9 16 1 334 42 349 88 176 188 199 171 175 169 203 199 137 150 158 72 23 68 90 109 118 158
52 83 91 79 74 31 16 8 19 12 13 4 27 91 116 137 213 250 269 242 250 264 285 288 325 328 320 335 358 348 329 328 333 334 329 342 3 357 350 355 348 353 3 356 0 346 346 341 336 4 27 333 354 40 45 130 189 185 207 185 192 212 225 154 137 236 343 340 335 81 112 111 127 113